Wind_Speed
23 23 24 24 24 24 23 23 23 23 24 24 24 25 25 25 25 26 24 23 22 21 21 21 21 21 20 20 20 20 19 19 18 18 17 16 16 15 15 15 14 14 14 13 14 14 13 13 13
23 24 25 25 25 24 24 24 24 25 25 25 25 26 26 26 26 26 26 25 24 23 23 23 23 23 22 22 22 22 21 21 20 20 19 19 18 17 17 17 16 16 16 15 15 15 14 14 14
24 24 25 26 25 25 26 25 25 26 26 26 26 26 26 26 26 27 27 26 25 25 25 25 25 25 24 24 23 23 23 22 22 22 21 21 20 19 18 18 18 18 18 17 17 17 16 16 16
24 25 26 26 25 26 27 26 26 26 27 27 27 27 27 27 27 27 27 27 27 26 26 27 26 26 26 26 25 25 24 24 24 24 23 23 22 22 21 20 20 19 19 19 19 18 18 18 17
24 25 26 25 25 27 28 28 27 28 28 28 28 29 29 28 28 28 28 28 28 27 27 28 28 27 27 27 27 26 26 26 26 25 25 24 23 23 23 22 22 22 21 21 21 21 20 19 19
23 25 26 25 26 27 28 29 30 30 30 30 30 30 31 30 30 29 29 29 29 29 29 29 29 29 29 29 29 29 28 28 28 27 27 26 26 25 25 24 24 24 23 23 22 22 22 22 21
24 25 25 26 26 27 28 29 31 32 31 31 31 31 31 31 31 30 30 30 30 30 30 30 30 30 30 30 30 30 30 30 29 29 29 28 28 27 27 26 26 26 25 25 25 24 24 23 23
25 25 25 26 27 27 27 28 30 31 32 32 33 33 33 33 33 32 32 32 32 32 31 31 31 32 32 32 32 32 32 31 31 31 31 30 30 30 29 29 28 28 28 28 27 26 26 26 26
26 26 25 26 27 27 28 29 30 31 31 32 33 34 35 35 35 34 34 34 34 34 34 34 34 34 34 34 34 34 34 34 33 33 33 32 32 32 32 31 31 30 30 30 30 30 29 29 28
26 27 26 27 28 28 29 30 31 32 32 33 34 35 37 37 37 36 37 37 37 37 37 37 36 36 37 37 37 37 36 36 36 36 35 35 34 35 35 34 34 33 33 32 32 32 32 31 31
26 26 27 27 28 29 30 30 31 32 32 33 35 36 37 38 39 39 39 39 39 39 39 40 40 39 39 40 40 40 39 39 39 39 39 38 37 37 37 37 36 36 36 35 34 34 34 33 33
24 25 27 28 29 29 30 31 32 32 33 34 36 37 38 39 40 41 41 41 41 41 41 42 42 42 42 42 43 43 42 42 42 42 42 41 40 40 39 39 39 38 38 38 37 36 36 36 35
25 25 27 28 29 30 30 31 32 32 34 35 36 37 38 39 40 41 42 43 43 43 43 42 43 43 43 43 43 44 44 43 43 44 44 43 43 42 41 41 41 40 40 40 40 39 39 38 38
25 26 27 28 29 30 31 32 33 33 35 36 36 37 37 39 40 41 41 43 43 44 44 44 44 44 45 45 45 46 46 45 45 46 46 45 45 45 44 43 43 43 42 42 42 42 41 41 40
27 27 27 28 29 30 31 32 33 34 35 36 36 37 38 39 40 41 41 42 43 44 44 44 45 46 46 46 47 48 48 47 47 47 48 47 47 47 46 46 45 45 45 45 44 44 44 43 42
28 28 29 29 30 31 32 31 32 34 35 36 36 37 38 40 41 41 42 42 43 44 45 46 47 47 47 47 48 48 49 49 49 49 49 49 49 49 48 48 47 47 47 47 46 46 46 45 44
29 30 30 30 30 31 32 31 32 34 35 35 36 37 38 39 41 42 43 43 44 44 45 46 48 48 48 49 49 49 50 50 50 51 51 51 51 51 51 50 50 49 49 49 48 48 48 47 47
31 31 31 32 32 32 33 32 32 35 36 36 36 37 38 39 41 42 42 43 44 44 45 46 47 49 50 50 50 50 51 51 52 52 52 53 52 53 53 53 52 52 52 51 51 50 50 50 50
33 33 32 33 34 34 34 34 33 34 36 37 37 37 38 40 41 42 42 43 43 44 46 46 47 48 50 51 51 51 52 52 53 53 54 54 55 55 55 54 54 54 54 54 53 53 52 52 52
34 35 35 35 36 37 36 35 35 35 36 37 37 38 39 40 41 42 42 43 44 44 45 46 46 48 49 51 52 53 53 54 53 54 55 55 56 56 56 56 55 55 55 55 55 55 54 53 53
36 36 36 37 38 39 39 37 36 36 36 38 38 38 39 40 41 41 42 43 44 45 45 46 47 47 49 51 52 53 54 54 55 55 55 55 56 57 57 57 56 56 56 56 56 56 56 55 54
38 38 39 39 40 41 40 41 36 37 38 39 39 39 39 40 40 41 42 43 44 44 44 45 46 47 48 49 51 52 53 53 54 55 55 56 57 57 57 57 57 57 57 56 56 56 56 56 55
39 39 40 40 42 43 41 43 40 39 39 39 40 40 39 40 40 42 42 42 43 43 43 44 45 46 47 48 49 50 51 53 54 54 55 55 56 56 56 57 56 57 57 57 57 57 57 57 56
40 40 41 42 43 44 42 43 42 40 40 40 40 40 41 41 41 42 42 42 42 43 43 44 46 47 47 48 49 50 51 52 53 53 54 55 56 56 56 56 56 57 57 57 57 58 58 57 58
41 40 41 43 44 44 43 44 43 41 40 40 39 40 40 41 41 41 41 42 42 43 43 44 46 47 47 48 49 50 51 51 52 53 54 55 56 56 56 56 56 56 57 57 58 58 58 58 58
42 42 42 43 44 45 44 44 42 41 41 41 41 41 41 41 41 42 42 43 43 43 44 43 44 45 45 47 49 51 51 51 51 52 53 55 56 57 57 57 56 56 57 57 58 58 59 60 59
43 43 43 44 45 46 46 46 44 42 42 43 42 42 42 42 42 42 43 42 43 43 43 43 44 44 45 47 48 49 49 50 50 51 52 53 55 56 56 55 55 56 56 56 56 58 59 60 59
44 44 44 44 45 46 46 45 44 43 43 43 43 43 42 42 42 43 43 42 43 43 43 43 44 45 46 47 48 48 49 49 49 51 52 53 53 54 54 54 54 54 55 54 55 56 57 58 59
44 44 44 45 45 46 46 45 43 43 43 44 44 44 43 44 44 43 43 43 43 43 43 43 44 45 44 45 46 47 47 47 48 49 49 50 51 51 51 52 52 52 53 53 55 56 56 57 58
45 44 44 44 45 45 46 46 43 42 43 44 44 44 44 44 45 44 43 43 42 42 42 42 43 44 43 43 44 44 45 45 46 46 48 49 50 50 50 52 52 52 52 53 54 55 55 56 56
Wind_Direction
249 248 249 249 250 251 251 249 248 247 247 248 248 247 248 249 251 253 253 252 251 251 251 251 251 250 250 250 250 251 252 253 252 252 252 253 255 256 258 259 262 264 263 262 263 265 265 262 263
250 250 250 251 251 252 251 248 248 249 250 249 249 249 249 250 251 254 253 253 252 252 252 252 251 251 250 250 251 251 252 253 253 253 253 254 255 257 258 260 261 263 263 263 264 264 264 264 264
252 251 251 251 252 252 250 251 251 251 251 251 251 251 251 251 251 252 254 254 254 253 253 253 253 252 252 251 252 252 252 253 254 254 253 254 255 257 258 260 262 263 264 263 263 263 264 265 265
253 253 252 252 252 252 252 252 252 252 251 251 252 252 252 252 252 252 254 255 255 254 254 254 254 254 253 252 252 253 253 253 254 254 255 255 256 257 258 259 261 263 265 265 264 263 264 265 266
254 254 254 254 253 252 251 252 253 254 253 252 252 253 253 251 253 253 253 254 255 255 255 255 255 255 254 253 252 253 253 253 254 255 255 257 257 257 258 259 260 261 263 265 266 264 263 265 266
254 255 256 256 255 254 253 254 254 255 255 254 253 253 254 252 252 253 253 255 255 256 256 256 255 255 254 254 253 253 253 254 254 255 256 257 258 259 259 259 259 261 262 264 267 267 265 265 266
256 256 257 258 257 257 256 256 256 256 256 256 256 254 254 254 254 254 254 255 256 256 256 256 256 255 255 254 254 253 253 254 255 255 255 256 257 259 260 261 260 260 261 263 265 266 266 265 267
258 258 259 259 259 258 258 258 258 258 257 256 256 256 255 255 255 255 255 256 256 256 256 256 257 257 256 255 255 255 255 255 255 256 256 256 257 258 260 261 262 262 261 262 263 265 266 266 267
259 260 260 261 261 260 259 260 261 261 261 259 258 257 257 257 257 257 257 257 258 258 258 258 258 257 257 257 256 256 256 255 255 256 256 257 258 259 260 261 262 263 263 263 263 264 265 266 267
261 262 262 262 262 262 260 261 261 262 262 262 260 259 259 259 259 259 259 259 259 259 259 259 259 258 257 257 257 257 256 256 256 257 257 258 259 260 260 261 262 263 263 264 264 264 264 266 267
263 263 263 263 263 263 262 262 263 263 263 264 263 261 261 261 261 261 261 261 260 260 260 260 259 258 257 257 257 257 257 257 257 257 258 258 260 261 261 261 263 263 264 264 264 264 264 264 266
266 265 264 264 265 265 265 265 266 266 265 265 265 263 262 262 263 262 262 263 262 262 261 261 260 260 259 258 257 258 258 258 257 258 258 259 259 261 261 261 262 263 263 264 264 264 264 264 264
268 268 267 266 267 267 267 268 268 268 268 267 267 265 265 265 266 265 264 263 263 263 262 262 261 260 260 259 258 258 258 259 259 259 259 259 260 260 261 261 262 262 263 264 264 264 263 264 264
269 269 269 269 269 269 269 270 270 270 270 269 268 267 266 267 267 267 266 264 264 263 262 262 261 261 260 260 259 258 259 260 260 261 261 261 261 261 262 262 262 262 262 263 263 264 264 263 263
269 270 271 271 271 272 272 272 273 273 272 271 270 267 267 267 268 268 267 266 265 264 263 262 261 261 261 260 260 259 259 260 261 261 261 261 261 261 262 263 263 263 263 263 263 263 264 263 263
269 271 272 273 273 274 274 275 275 275 274 273 271 269 268 269 269 270 269 269 267 266 265 263 262 262 261 261 261 260 259 259 261 261 261 261 261 262 262 263 263 263 263 264 263 262 262 263 263
268 272 274 275 275 276 277 278 278 277 276 274 272 272 272 272 272 272 272 270 269 267 266 264 263 262 261 261 261 260 259 259 261 261 261 261 261 262 262 263 263 263 263 264 263 262 262 262 263
270 272 275 277 277 278 279 280 281 280 278 276 275 276 275 274 274 274 274 272 270 268 267 267 265 263 261 261 261 260 259 259 261 261 261 261 261 262 262 262 262 263 263 263 263 262 262 262 262
270 273 276 277 278 279 280 281 281 280 279 278 279 280 278 277 277 277 276 274 272 270 269 267 267 264 262 261 261 261 260 260 261 261 262 261 261 261 261 262 262 262 262 262 262 262 262 262 262
269 272 275 276 278 280 280 280 281 281 279 279 281 282 281 280 279 277 276 276 274 272 271 269 269 266 264 263 263 262 261 260 262 262 262 262 261 261 261 262 261 261 261 261 261 261 261 261 261
270 272 275 276 278 280 282 281 281 280 279 279 282 284 283 282 281 280 280 279 277 275 272 270 270 269 266 265 264 263 262 262 263 262 261 262 262 262 262 262 261 261 261 261 260 260 260 260 260
271 273 275 276 278 279 281 283 282 281 281 282 284 285 284 283 282 283 284 283 279 276 274 272 272 271 269 267 266 264 262 262 263 263 263 262 261 261 262 261 261 260 260 260 260 259 259 259 258
271 273 274 276 277 279 280 282 282 281 283 284 284 284 285 284 283 284 285 285 282 279 278 275 275 274 272 269 268 266 263 263 264 264 264 263 262 262 262 261 261 260 259 259 259 258 258 258 258
270 272 274 275 276 278 280 281 283 284 285 285 285 285 285 286 285 285 286 285 283 280 280 278 278 277 274 271 269 266 265 265 265 265 264 263 262 262 262 261 261 260 259 258 258 257 257 257 257
269 272 274 275 276 278 280 280 282 285 286 287 287 287 286 286 286 286 286 286 284 282 282 281 279 278 275 272 269 267 266 266 266 266 266 265 264 263 263 262 261 260 259 258 257 257 257 257 257
268 270 272 274 277 278 279 280 282 284 286 287 288 288 288 287 286 285 287 287 286 284 283 283 281 278 275 274 271 267 266 266 267 267 267 266 264 263 262 261 261 260 259 258 259 258 257 257 257
268 269 271 273 275 277 278 280 281 283 284 285 288 289 289 289 289 288 288 287 286 285 284 283 282 280 277 275 272 269 267 267 268 268 267 266 265 264 262 261 261 260 259 259 260 260 258 258 257
268 269 271 272 274 276 277 279 282 283 285 286 288 289 289 290 289 289 288 287 286 285 284 282 282 280 277 276 273 270 269 269 268 268 267 267 266 265 263 261 261 261 260 259 261 261 259 258 258
267 268 269 270 272 274 276 278 282 284 285 286 287 288 289 289 290 289 288 288 287 286 286 284 282 281 280 278 274 271 269 267 267 268 268 268 268 266 264 261 261 261 260 260 261 260 260 259 258
265 266 267 269 271 272 275 277 280 282 284 285 287 288 289 290 290 290 289 289 288 287 286 285 283 282 281 278 276 272 269 268 269 270 270 269 267 265 263 262 261 260 260 260 261 261 261 260 258
Height
5815 5816 5817 5819 5821 5822 5823 5825 5826 5827 5828 5830 5831 5832 5833 5835 5837 5839 5840 5840 5842 5843 5845 5846 5847 5848 5849 5850 5851 5852 5853 5854 5855 5855 5856 5857 5857 5858 5858 5859 5859 5860 5860 5860 5861 5861 5861 5861 5861
5810 5812 5813 5815 5816 5817 5819 5820 5821 5823 5824 5826 5827 5828 5830 5831 5832 5833 5834 5836 5838 5840 5841 5842 5843 5844 5845 5846 5847 5849 5850 5851 5852 5853 5853 5854 5855 5855 5856 5856 5857 5857 5858 5858 5859 5859 5859 5859 5860
5806 5807 5809 5810 5812 5813 5814 5816 5817 5818 5820 5821 5823 5824 5826 5827 5828 5829 5830 5832 5834 5835 5837 5838 5839 5840 5842 5843 5844 5845 5846 5847 5848 5849 5850 5851 5852 5852 5853 5854 5854 5855 5855 5856 5856 5856 5857 5857 5857
5802 5803 5805 5806 5807 5809 5809 5811 5812 5813 5815 5816 5818 5820 5821 5823 5823 5825 5826 5828 5829 5831 5832 5834 5835 5836 5838 5839 5840 5841 5842 5843 5844 5845 5847 5848 5848 5849 5850 5851 5851 5852 5852 5853 5853 5853 5854 5854 5854
5797 5798 5800 5801 5802 5803 5804 5805 5807 5808 5810 5812 5813 5814 5815 5818 5818 5820 5821 5823 5824 5826 5828 5829 5830 5832 5833 5834 5835 5837 5838 5839 5840 5841 5842 5844 5845 5845 5846 5847 5848 5848 5849 5849 5850 5850 5850 5851 5851
5793 5793 5795 5796 5797 5798 5799 5800 5801 5802 5804 5806 5807 5809 5810 5812 5813 5815 5816 5818 5819 5821 5822 5824 5825 5826 5828 5829 5831 5832 5833 5834 5835 5837 5838 5839 5840 5841 5842 5843 5844 5845 5845 5846 5846 5847 5847 5847 5848
5788 5789 5789 5791 5791 5792 5793 5795 5796 5797 5798 5800 5801 5803 5804 5805 5807 5809 5811 5812 5814 5815 5817 5818 5819 5821 5822 5824 5825 5826 5828 5829 5830 5831 5833 5834 5835 5836 5837 5838 5839 5840 5841 5842 5842 5843 5843 5843 5844
5782 5784 5784 5785 5786 5787 5788 5789 5789 5790 5792 5793 5794 5796 5797 5798 5800 5803 5804 5806 5807 5809 5810 5812 5813 5815 5816 5818 5819 5820 5822 5823 5824 5826 5827 5829 5830 5831 5832 5833 5834 5835 5836 5837 5838 5838 5839 5839 5840
5776 5779 5779 5779 5780 5781 5782 5783 5783 5784 5785 5786 5787 5789 5790 5791 5793 5795 5797 5799 5800 5802 5803 5805 5807 5808 5810 5811 5813 5814 5815 5817 5818 5820 5821 5823 5824 5825 5826 5828 5829 5830 5831 5832 5833 5833 5834 5834 5835
5771 5772 5774 5774 5774 5775 5776 5776 5777 5778 5779 5779 5780 5781 5782 5783 5786 5788 5789 5791 5793 5795 5796 5797 5799 5801 5802 5804 5805 5807 5809 5810 5812 5813 5814 5816 5818 5819 5820 5821 5823 5824 5825 5826 5827 5828 5828 5829 5830
5765 5766 5767 5767 5767 5768 5769 5770 5770 5771 5772 5772 5773 5774 5775 5776 5777 5779 5781 5783 5785 5786 5788 5789 5791 5792 5794 5795 5797 5799 5801 5802 5804 5806 5807 5809 5810 5812 5813 5815 5816 5817 5818 5819 5821 5821 5822 5823 5824
5760 5760 5760 5761 5761 5762 5762 5763 5763 5764 5765 5764 5765 5765 5766 5767 5769 5770 5772 5774 5775 5776 5778 5780 5781 5783 5785 5786 5788 5790 5792 5794 5796 5797 5799 5801 5803 5804 5806 5807 5808 5810 5811 5812 5813 5814 5815 5816 5817
5753 5754 5754 5754 5754 5755 5755 5755 5755 5756 5756 5756 5756 5757 5758 5759 5760 5761 5762 5763 5765 5766 5768 5770 5771 5773 5775 5776 5778 5780 5782 5784 5786 5788 5790 5792 5794 5795 5797 5799 5800 5802 5803 5804 5805 5806 5808 5808 5809
5747 5747 5747 5747 5747 5748 5748 5748 5748 5749 5748 5748 5748 5748 5749 5750 5750 5751 5752 5753 5754 5756 5757 5759 5760 5762 5764 5766 5768 5770 5772 5774 5776 5778 5780 5782 5784 5786 5788 5790 5791 5793 5794 5795 5796 5797 5799 5800 5801
5740 5741 5741 5741 5740 5740 5740 5741 5740 5740 5739 5739 5739 5739 5739 5740 5740 5741 5742 5742 5743 5744 5746 5747 5749 5751 5753 5755 5757 5759 5761 5764 5766 5768 5769 5771 5774 5776 5778 5780 5781 5783 5784 5785 5787 5788 5789 5791 5792
5734 5734 5734 5734 5733 5732 5733 5733 5733 5731 5730 5730 5730 5730 5730 5730 5730 5730 5731 5731 5732 5733 5734 5735 5737 5739 5741 5743 5745 5748 5750 5752 5754 5756 5758 5760 5763 5765 5767 5769 5770 5772 5773 5775 5776 5778 5780 5781 5783
5727 5727 5726 5726 5726 5724 5724 5725 5724 5722 5721 5721 5721 5720 5720 5720 5720 5720 5720 5720 5720 5721 5722 5723 5724 5726 5728 5731 5733 5735 5738 5740 5743 5745 5747 5749 5751 5753 5755 5757 5759 5760 5762 5763 5765 5767 5769 5770 5772
5720 5720 5719 5718 5717 5717 5716 5717 5716 5713 5712 5712 5711 5711 5710 5710 5710 5709 5708 5708 5708 5708 5709 5710 5711 5713 5715 5718 5720 5723 5725 5728 5730 5732 5734 5736 5738 5740 5742 5745 5747 5748 5750 5751 5753 5755 5757 5759 5761
5712 5711 5711 5711 5708 5708 5708 5708 5708 5706 5704 5703 5702 5701 5700 5700 5699 5698 5697 5697 5696 5697 5697 5697 5698 5699 5701 5704 5707 5709 5712 5714 5716 5718 5720 5722 5724 5726 5729 5731 5733 5735 5737 5739 5740 5742 5744 5746 5748
5704 5703 5703 5703 5701 5700 5700 5700 5699 5698 5696 5694 5693 5691 5690 5689 5689 5688 5687 5686 5685 5684 5684 5685 5685 5686 5688 5690 5692 5694 5697 5700 5702 5703 5706 5707 5710 5712 5714 5716 5719 5721 5723 5725 5727 5729 5731 5733 5735
5695 5695 5695 5694 5692 5691 5691 5692 5692 5690 5688 5686 5684 5682 5680 5679 5678 5677 5676 5675 5673 5672 5672 5672 5672 5672 5674 5675 5677 5679 5681 5684 5686 5688 5691 5693 5695 5697 5699 5701 5703 5706 5708 5710 5713 5715 5717 5719 5722
5686 5687 5686 5685 5683 5683 5682 5680 5684 5681 5679 5678 5675 5673 5672 5670 5668 5667 5665 5663 5662 5660 5659 5659 5659 5659 5660 5661 5662 5664 5667 5669 5672 5674 5676 5677 5680 5682 5683 5686 5688 5690 5693 5695 5698 5700 5702 5705 5708
5677 5677 5677 5675 5673 5673 5673 5671 5674 5672 5670 5669 5667 5664 5662 5660 5659 5657 5655 5653 5650 5649 5647 5647 5647 5646 5646 5647 5648 5650 5652 5654 5657 5659 5660 5662 5665 5667 5668 5670 5672 5675 5677 5680 5682 5685 5687 5690 5693
5667 5668 5667 5665 5664 5664 5665 5663 5663 5663 5661 5659 5657 5655 5652 5651 5649 5647 5644 5642 5640 5638 5637 5636 5635 5634 5634 5634 5635 5636 5638 5640 5642 5644 5645 5647 5650 5652 5654 5655 5657 5659 5662 5664 5667 5669 5672 5675 5678
5658 5659 5657 5655 5654 5655 5655 5653 5655 5653 5652 5650 5648 5646 5644 5641 5639 5637 5635 5632 5630 5628 5626 5625 5624 5623 5622 5622 5623 5623 5625 5626 5628 5629 5631 5632 5635 5637 5639 5640 5642 5644 5646 5649 5651 5654 5657 5660 5663
5648 5648 5649 5647 5645 5645 5645 5644 5646 5644 5642 5640 5638 5636 5634 5632 5629 5627 5625 5622 5620 5618 5616 5614 5612 5611 5610 5610 5610 5610 5611 5612 5613 5615 5616 5618 5619 5621 5623 5625 5627 5629 5631 5633 5635 5638 5642 5645 5648
5637 5637 5638 5637 5635 5634 5635 5635 5636 5635 5632 5631 5629 5627 5624 5622 5620 5617 5615 5612 5610 5608 5605 5603 5602 5600 5599 5597 5597 5597 5598 5599 5599 5601 5602 5603 5604 5605 5607 5609 5611 5614 5616 5618 5620 5623 5626 5629 5632
5627 5627 5627 5626 5624 5624 5625 5626 5626 5624 5622 5620 5618 5616 5614 5612 5610 5608 5605 5602 5600 5598 5595 5593 5591 5589 5587 5585 5584 5584 5585 5585 5585 5586 5587 5588 5589 5590 5592 5593 5596 5598 5601 5603 5605 5608 5610 5613 5616
5617 5617 5616 5615 5614 5614 5614 5619 5617 5615 5612 5610 5609 5606 5604 5602 5600 5598 5595 5592 5590 5587 5585 5582 5580 5578 5576 5574 5572 5572 5571 5571 5571 5572 5572 5573 5574 5575 5577 5579 5581 5584 5586 5588 5590 5592 5594 5597 5600
5604 5605 5605 5605 5604 5603 5603 5609 5608 5606 5602 5600 5598 5596 5594 5592 5589 5587 5584 5582 5580 5577 5575 5572 5569 5567 5565 5562 5561 5559 5559 5559 5559 5559 5559 5560 5560 5561 5562 5564 5566 5569 5571 5573 5575 5577 5579 5581 5585